Wind_Speed
14 14 14 15 15 15 15 15 15 15 16 17 17 17 19 20 21 21 21 23 25 26 25 22 21 21 21 19 19 18 17 17 18 18 18 18 16 15 14 13 12 11
14 14 14 14 14 15 15 15 16 16 17 16 16 17 18 19 19 19 20 20 21 25 26 26 24 23 23 22 22 21 19 19 20 20 20 20 19 17 16 15 14 13
15 15 15 15 14 15 15 14 15 16 16 16 17 17 17 18 19 19 19 19 20 22 22 25 27 26 25 23 22 22 22 21 21 21 22 22 21 20 19 17 16 15
16 16 16 16 16 15 15 14 14 14 15 15 16 16 17 18 19 19 19 19 20 21 20 22 25 27 28 26 23 23 23 22 21 21 23 23 23 23 22 20 18 17
15 15 15 16 16 16 15 15 15 15 15 15 15 16 17 18 18 17 18 19 20 20 20 21 22 25 29 29 27 25 25 25 22 20 22 23 23 24 24 23 21 19
14 15 15 15 16 16 15 15 15 16 16 16 16 16 17 17 18 17 17 18 19 19 20 21 21 22 26 29 29 27 27 28 27 24 23 22 22 23 25 25 23 21
15 14 15 15 16 16 15 15 15 16 16 17 17 17 17 17 18 18 17 17 18 19 19 19 20 20 22 25 29 29 30 31 32 31 29 25 21 21 23 25 25 22
15 14 14 15 16 16 15 15 15 15 16 17 18 18 18 18 18 19 18 17 17 19 19 18 19 20 21 22 25 29 32 33 33 34 35 32 24 20 22 23 24 23
15 14 15 15 16 15 15 15 15 15 16 16 17 18 18 19 19 19 19 19 18 19 19 18 20 20 20 21 22 25 28 31 32 33 36 36 30 24 22 22 24 23
15 16 16 16 16 16 16 16 16 15 16 16 17 17 18 19 19 19 19 18 18 19 19 18 19 19 20 20 21 23 25 27 29 32 36 37 33 28 24 20 21 21
16 16 16 16 16 16 17 17 17 16 16 16 17 18 19 19 19 19 19 19 18 19 20 18 18 18 19 20 20 21 24 25 26 30 35 35 32 31 26 21 21 21
16 17 16 16 17 17 17 17 17 16 16 17 18 19 19 19 19 19 19 19 18 19 20 19 18 18 18 19 19 19 21 23 23 27 32 34 33 33 30 26 26 24
17 17 16 16 17 18 18 17 16 16 17 18 18 19 20 20 20 20 20 19 19 19 19 19 20 19 18 19 19 18 19 20 21 24 29 32 34 34 32 29 27 24
17 16 16 16 17 17 18 17 18 18 18 19 19 20 20 20 20 21 20 19 19 19 18 17 19 20 20 20 19 18 19 19 20 23 27 30 33 34 32 29 26 23
16 16 16 16 16 17 18 18 19 20 20 21 21 21 21 21 21 21 20 19 18 19 18 17 17 18 19 20 18 18 18 18 18 20 24 28 31 31 28 26 23 22
15 16 16 17 17 17 18 19 20 21 22 22 22 22 22 22 22 21 20 18 18 18 18 18 17 17 18 18 18 17 16 16 15 15 19 24 28 29 26 23 22 21
15 16 17 17 17 18 19 20 21 22 22 23 23 22 22 22 22 21 20 18 17 17 18 19 18 18 19 18 18 17 14 14 13 13 18 24 29 30 27 23 22 23
16 16 17 17 18 19 20 20 21 21 22 22 22 22 22 22 21 21 20 18 16 16 17 18 18 19 19 19 18 17 14 13 13 14 20 26 29 29 28 25 23 23
16 16 17 18 19 20 20 20 20 21 21 21 21 21 22 22 21 21 21 19 17 16 16 18 18 19 19 19 18 16 14 14 14 16 22 28 28 26 26 27 26 26
16 17 18 18 19 19 19 20 20 20 20 20 20 21 22 22 22 21 20 19 17 16 17 17 17 18 19 19 18 16 15 15 14 16 21 28 30 27 26 28 29 29
16 17 18 18 18 18 19 19 19 20 20 20 20 21 22 22 22 21 20 18 17 17 18 17 16 17 19 18 16 15 15 15 15 15 17 22 28 29 28 29 31 31
17 17 17 17 17 17 17 18 19 20 21 20 21 21 21 21 20 19 19 19 18 18 18 18 17 17 18 18 17 15 14 15 16 17 18 20 22 25 27 30 33 33
16 16 16 16 16 17 18 18 20 21 20 20 20 21 21 21 20 19 18 18 17 17 16 16 16 17 18 18 18 17 15 15 16 18 20 21 22 23 25 28 32 33
16 16 16 16 16 17 18 19 20 20 20 20 21 21 21 21 21 20 19 18 17 16 16 16 17 17 18 19 19 19 17 16 16 17 19 21 23 24 23 23 25 27
17 17 16 17 18 18 19 19 19 20 20 21 22 21 20 20 20 21 20 20 19 18 18 18 18 18 19 20 20 19 18 17 16 16 17 19 21 23 21 20 20 20
16 16 17 17 18 18 18 18 19 19 19 21 22 21 20 20 19 20 20 20 20 20 19 20 20 20 20 20 20 19 18 17 15 13 13 15 18 20 18 17 18 17
Wind_Direction
353 350 348 346 344 339 334 329 325 324 321 316 310 302 295 291 288 287 284 277 270 267 267 266 263 261 258 256 259 261 258 259 262 265 265 262 257 253 251 248 242 236
359 355 349 346 343 339 335 330 326 324 321 320 316 311 307 301 294 290 289 285 278 270 264 260 260 259 257 256 256 258 257 254 256 259 262 262 259 254 251 248 243 237
1 358 355 350 343 337 335 332 329 326 323 321 318 314 309 303 299 297 294 290 285 279 267 259 257 256 255 253 251 253 255 254 253 255 257 260 258 255 252 248 244 240
1 359 358 355 349 342 336 332 331 327 323 321 318 317 313 307 304 302 298 291 285 282 275 266 261 258 256 253 248 246 248 251 250 251 253 256 256 253 251 248 245 241
358 357 355 353 352 350 343 336 333 331 328 324 320 319 318 315 311 303 296 291 287 284 281 278 271 264 259 256 251 244 243 246 245 245 248 250 251 252 250 247 244 240
348 346 346 346 347 347 347 343 338 335 331 326 323 322 321 320 318 312 302 293 290 289 287 285 281 271 261 257 254 250 249 250 247 243 243 243 245 249 249 246 243 239
338 338 338 338 337 338 340 339 338 336 332 329 326 324 323 322 320 318 312 300 291 289 289 287 283 279 271 261 257 253 253 255 254 248 244 240 239 244 246 245 242 237
330 330 330 330 330 330 330 330 333 334 333 331 327 324 323 323 321 319 315 308 297 289 286 284 281 281 279 272 264 255 251 252 253 251 246 238 232 236 242 242 241 233
324 323 323 325 325 323 321 323 326 328 330 331 328 326 324 322 321 319 315 311 305 295 287 284 283 281 279 276 271 264 255 249 246 247 247 242 234 232 235 237 240 233
318 318 319 321 322 319 316 317 320 322 325 327 327 327 325 321 319 319 316 312 307 302 293 286 284 283 281 277 274 270 264 255 247 244 247 246 234 226 227 229 235 230
317 317 316 317 319 318 315 315 317 318 320 323 324 325 326 323 318 317 316 313 308 303 299 293 287 284 283 281 278 275 269 261 252 244 245 244 230 221 225 227 230 228
319 318 315 315 316 317 317 316 316 317 318 318 320 322 325 324 320 315 313 313 311 305 303 300 292 285 283 282 279 277 272 262 251 242 243 242 232 227 230 230 230 230
320 319 317 316 315 317 318 317 317 316 316 316 317 320 321 322 321 316 311 311 312 310 308 305 298 290 284 280 277 278 278 268 251 241 242 240 231 227 227 225 225 224
318 319 319 317 316 317 317 316 315 315 315 315 316 317 318 319 320 317 311 309 311 313 312 308 303 297 287 280 281 287 291 282 264 250 245 238 228 223 222 219 216 215
316 317 318 318 317 317 316 315 315 314 314 314 314 315 314 314 317 316 311 306 307 312 314 311 307 302 293 285 286 293 296 291 277 258 244 235 226 219 214 209 205 206
316 317 318 318 317 317 317 316 315 314 313 313 313 314 313 312 315 316 311 304 304 309 313 315 313 308 302 291 287 291 292 288 279 255 235 227 219 211 208 206 205 208
319 319 319 319 318 317 317 316 315 315 314 314 314 314 314 314 315 316 312 302 300 306 311 316 316 313 311 302 291 289 288 282 270 240 219 217 214 211 214 215 212 215
320 320 319 320 319 318 318 317 318 318 317 316 316 315 317 317 315 316 313 301 297 303 309 314 315 312 313 312 301 292 286 279 262 230 214 216 218 220 224 222 218 222
320 320 319 320 319 318 318 318 319 319 318 317 317 317 319 319 316 315 311 305 302 304 309 313 314 312 313 317 312 297 284 277 264 238 224 223 225 229 231 226 221 225
319 320 319 320 319 319 319 319 320 319 318 318 317 318 320 321 319 315 312 310 307 306 312 315 310 308 312 318 316 302 284 275 267 252 238 234 234 236 233 228 225 224
319 319 320 320 321 321 322 322 321 319 318 318 316 318 321 321 321 317 314 314 310 307 313 317 314 312 316 320 318 305 287 274 266 259 250 244 244 242 236 231 230 229
320 321 322 322 324 325 325 323 321 320 320 319 317 318 321 321 320 316 313 314 314 313 315 320 322 323 325 327 324 312 293 277 268 261 256 252 251 247 241 238 238 235
324 324 324 326 326 327 325 323 322 321 320 320 320 322 322 321 320 316 310 310 313 316 317 321 324 326 329 333 330 322 307 287 275 267 261 258 255 251 247 245 244 239
326 326 327 328 327 326 324 323 322 321 321 322 323 323 322 322 321 318 313 309 307 309 312 315 318 322 327 330 331 328 321 305 289 277 270 265 262 260 257 252 250 246
326 325 326 326 326 325 323 323 324 322 322 324 324 323 322 322 321 319 315 311 306 303 303 306 309 314 319 324 326 326 323 317 306 292 282 275 270 269 263 250 246 249
326 325 324 324 324 324 323 325 326 324 324 327 326 324 324 323 321 318 315 312 310 306 303 303 304 305 308 313 318 319 319 319 316 303 295 290 282 275 264 241 233 237
Height
1548 1547 1546 1544 1543 1542 1541 1539 1538 1537 1536 1534 1533 1532 1531 1531 1531 1531 1532 1532 1531 1531 1531 1531 1531 1532 1532 1532 1532 1531 1531 1531 1531 1531 1531 1531 1531 1530 1530 1530 1530 1530
1548 1547 1546 1544 1543 1542 1540 1539 1537 1536 1535 1534 1532 1531 1529 1529 1528 1528 1528 1528 1528 1528 1527 1527 1527 1528 1529 1529 1529 1529 1529 1529 1529 1529 1529 1529 1529 1528 1528 1528 1528 1528
1548 1547 1545 1544 1543 1541 1540 1538 1537 1535 1534 1533 1532 1530 1529 1527 1526 1525 1524 1525 1525 1524 1524 1523 1523 1524 1525 1526 1526 1526 1526 1526 1526 1526 1526 1526 1526 1526 1526 1526 1526 1526
1548 1547 1545 1544 1542 1540 1539 1537 1536 1535 1533 1532 1531 1529 1528 1526 1525 1523 1521 1522 1522 1521 1519 1520 1520 1520 1521 1521 1522 1523 1522 1523 1524 1524 1524 1524 1524 1524 1524 1524 1524 1524
1548 1547 1545 1543 1542 1540 1538 1537 1535 1534 1532 1531 1529 1528 1526 1524 1523 1522 1520 1520 1520 1518 1516 1516 1516 1516 1516 1516 1517 1518 1518 1519 1521 1521 1521 1521 1522 1522 1522 1521 1521 1522
1548 1546 1544 1543 1541 1539 1538 1536 1534 1533 1531 1529 1528 1526 1525 1523 1521 1520 1519 1518 1517 1516 1514 1513 1513 1512 1512 1511 1511 1512 1514 1515 1516 1518 1519 1519 1519 1520 1519 1519 1519 1519
1547 1545 1544 1542 1540 1538 1537 1535 1533 1531 1530 1528 1526 1525 1523 1521 1520 1518 1517 1516 1515 1513 1512 1511 1510 1510 1509 1508 1508 1508 1510 1511 1511 1513 1514 1516 1517 1518 1517 1517 1517 1517
1546 1544 1543 1541 1539 1537 1536 1534 1532 1530 1528 1526 1525 1523 1521 1520 1518 1516 1515 1514 1512 1511 1510 1509 1508 1507 1506 1506 1505 1505 1505 1506 1507 1507 1509 1511 1513 1514 1516 1516 1515 1515
1545 1543 1541 1540 1538 1536 1534 1532 1531 1529 1527 1525 1523 1522 1520 1518 1516 1515 1513 1511 1510 1509 1508 1507 1505 1504 1504 1503 1502 1502 1502 1502 1503 1503 1503 1505 1508 1510 1513 1513 1512 1512
1543 1542 1540 1538 1536 1534 1533 1531 1529 1528 1526 1524 1522 1520 1519 1517 1515 1513 1511 1509 1507 1506 1505 1504 1503 1502 1501 1500 1499 1499 1498 1498 1499 1499 1499 1500 1503 1506 1508 1510 1510 1510
1542 1540 1538 1537 1535 1533 1531 1529 1527 1526 1524 1523 1521 1519 1517 1515 1513 1511 1509 1507 1506 1504 1503 1502 1501 1500 1498 1497 1496 1495 1495 1495 1495 1495 1494 1495 1499 1502 1504 1506 1506 1506
1540 1539 1537 1535 1533 1531 1529 1528 1526 1524 1523 1522 1520 1517 1515 1513 1511 1510 1508 1506 1504 1502 1500 1499 1498 1497 1496 1495 1494 1493 1492 1491 1491 1490 1490 1492 1494 1497 1500 1501 1502 1503
1539 1537 1535 1534 1532 1530 1528 1526 1525 1523 1522 1520 1518 1516 1514 1512 1510 1508 1506 1504 1502 1500 1499 1497 1495 1494 1493 1492 1491 1490 1489 1488 1488 1487 1487 1488 1490 1493 1495 1496 1497 1500
1538 1536 1534 1532 1531 1529 1527 1525 1524 1522 1520 1518 1516 1514 1512 1510 1507 1505 1503 1502 1500 1498 1497 1495 1493 1492 1490 1489 1488 1487 1486 1485 1484 1483 1483 1484 1486 1488 1490 1491 1493 1496
1536 1535 1533 1531 1529 1528 1526 1524 1522 1520 1518 1516 1514 1512 1510 1508 1505 1503 1501 1499 1498 1497 1495 1493 1491 1489 1488 1487 1486 1484 1483 1481 1480 1479 1480 1482 1484 1486 1488 1489 1491 1493
1535 1534 1532 1530 1528 1526 1525 1523 1521 1518 1516 1514 1512 1510 1508 1506 1503 1501 1499 1497 1496 1495 1493 1491 1489 1488 1486 1485 1484 1483 1481 1479 1478 1477 1477 1480 1483 1485 1486 1487 1488 1490
1534 1532 1531 1529 1527 1525 1523 1521 1519 1517 1514 1512 1510 1508 1506 1503 1501 1499 1497 1495 1494 1493 1491 1489 1487 1486 1484 1483 1482 1480 1479 1478 1476 1476 1476 1479 1481 1483 1485 1486 1487 1489
1533 1531 1529 1528 1526 1524 1522 1519 1517 1515 1513 1510 1508 1506 1503 1501 1499 1498 1495 1493 1492 1491 1490 1488 1486 1484 1482 1480 1479 1478 1478 1477 1476 1475 1476 1478 1479 1481 1482 1484 1485 1487
1532 1530 1528 1526 1524 1522 1520 1518 1516 1514 1511 1509 1506 1504 1502 1499 1497 1496 1494 1492 1490 1489 1488 1486 1484 1482 1480 1479 1477 1476 1476 1475 1474 1474 1475 1476 1478 1479 1480 1482 1483 1485
1531 1529 1527 1525 1523 1521 1519 1516 1514 1512 1510 1507 1505 1502 1500 1498 1495 1493 1492 1490 1489 1487 1486 1485 1483 1481 1479 1477 1475 1474 1474 1473 1473 1473 1474 1474 1475 1476 1478 1479 1480 1481
1530 1528 1526 1524 1521 1519 1517 1515 1513 1510 1508 1505 1503 1500 1498 1496 1494 1491 1490 1488 1487 1486 1484 1483 1481 1479 1477 1476 1474 1473 1472 1472 1471 1471 1471 1472 1472 1473 1474 1476 1477 1478
1529 1526 1525 1522 1520 1518 1516 1514 1512 1509 1506 1504 1501 1499 1497 1494 1492 1490 1488 1487 1486 1484 1483 1481 1480 1478 1476 1474 1473 1472 1471 1470 1470 1470 1470 1470 1470 1470 1471 1472 1473 1474
1527 1525 1523 1521 1519 1517 1515 1513 1510 1507 1505 1502 1499 1497 1495 1493 1491 1489 1487 1486 1484 1483 1482 1480 1479 1477 1475 1473 1472 1470 1470 1469 1468 1468 1468 1467 1467 1467 1468 1468 1469 1470
1526 1524 1522 1520 1518 1516 1514 1511 1509 1506 1504 1501 1498 1496 1494 1492 1490 1488 1486 1485 1483 1481 1480 1479 1478 1476 1474 1473 1471 1469 1468 1467 1467 1466 1465 1465 1464 1464 1464 1465 1466 1466
1525 1523 1521 1519 1517 1515 1513 1510 1508 1505 1503 1500 1498 1496 1493 1491 1489 1487 1485 1483 1481 1480 1478 1477 1476 1475 1473 1472 1470 1469 1467 1466 1465 1464 1463 1462 1462 1461 1462 1462 1463 1463
1524 1522 1520 1518 1516 1514 1512 1509 1507 1504 1502 1499 1497 1495 1492 1490 1488 1486 1484 1482 1480 1478 1477 1475 1474 1473 1472 1470 1469 1468 1466 1465 1464 1463 1461 1460 1460 1459 1459 1459 1460 1460